Flughafen Wetterinformationen

LTBA 251950Z 04009KT CAVOK 26/22 Q1017 NOSIG

VATSIM Feed

Card image cap

ATC Buchungen

Es wurde keine Position gebucht

Card image cap

Aktive Flugsicherung

Derzeit sind keine Fluglotsen Online

Blog

Read our latest news and get to know us better.